Theta_e
295 295 296 296 298 301 303 303 302 303 300 295 297 297 297 297 297 297 297 298 298 299 297 297 298 299 298 298 300 299 300 301 302 306 314 310 311 310 307 310 304 305 309 313 314 314 313 310 311 312 309 307 310 310
295 295 295 296 298 302 303 303 302 303 299 295 296 297 297 297 297 297 297 297 297 297 296 297 297 298 298 298 301 300 300 302 305 304 307 307 310 308 308 308 309 308 311 313 312 312 309 311 310 308 306 309 310 309
296 295 295 296 298 302 303 302 303 303 299 294 296 297 297 297 297 297 297 297 296 296 294 294 297 300 300 299 299 298 301 302 303 305 306 308 311 310 307 306 305 309 311 311 312 311 309 311 308 308 308 309 309 309
296 295 295 296 298 302 303 303 303 303 298 294 296 296 297 297 297 297 296 296 296 296 298 297 299 299 301 301 301 299 301 303 305 306 308 309 310 308 310 307 309 308 309 313 311 311 312 310 306 307 308 308 308 308
296 295 295 296 298 302 303 303 303 302 296 292 295 297 297 297 297 297 296 298 297 296 298 297 298 301 301 301 302 301 301 304 307 309 310 310 310 309 309 309 311 310 314 312 315 313 311 308 307 308 306 306 308 309
297 296 296 296 299 302 303 303 303 301 293 291 296 297 297 298 297 297 296 301 298 296 299 302 298 298 301 302 307 302 302 302 307 308 310 309 308 308 309 314 310 311 313 312 314 311 309 306 307 306 306 307 307 308
298 296 297 296 299 302 303 303 303 298 290 290 294 295 294 297 298 297 298 301 299 298 301 303 300 299 301 304 304 305 305 306 309 310 309 310 310 309 310 313 310 309 310 311 309 306 306 308 308 306 306 307 307 307
298 297 297 297 299 302 303 303 302 294 290 291 291 296 297 298 298 299 304 303 301 299 302 302 302 300 302 302 306 304 307 309 310 311 310 310 310 310 312 312 312 312 312 309 305 304 307 305 305 307 306 305 306 306
297 297 298 298 300 302 303 303 298 290 290 291 296 299 300 299 301 304 303 302 301 302 301 300 305 303 300 302 302 307 308 312 310 311 311 310 312 313 313 315 313 308 306 305 304 304 306 307 308 307 305 305 306 305
298 297 299 300 301 303 303 301 292 290 290 294 300 302 303 303 303 302 301 304 302 302 302 302 303 304 303 303 308 310 309 313 312 312 311 312 312 307 305 308 311 307 305 304 304 305 304 307 307 306 306 306 305 303
298 297 298 301 302 303 302 296 290 290 292 292 294 298 297 301 301 297 300 306 303 303 301 301 303 304 300 307 308 309 311 308 315 314 314 314 311 305 302 303 306 305 303 302 303 303 305 306 307 306 305 305 304 304
298 298 299 301 302 302 300 292 291 291 292 293 295 296 297 298 300 302 302 307 304 306 304 303 301 300 300 301 308 307 311 312 313 309 316 313 306 303 302 303 303 307 302 302 303 304 305 306 306 305 305 305 303 301
299 299 300 302 302 302 299 290 292 291 293 298 297 299 299 299 300 305 303 301 301 300 301 299 296 296 297 301 301 307 309 310 306 311 312 308 302 301 300 301 305 309 302 303 304 303 304 304 305 304 304 304 301 300
300 300 301 302 302 301 293 291 291 293 297 300 303 296 301 302 302 298 298 297 296 298 295 294 294 296 296 299 303 307 307 308 309 303 305 302 301 300 299 303 311 310 303 303 303 303 303 303 304 303 303 303 301 301
299 299 301 301 302 298 290 291 292 295 298 302 300 297 300 298 297 296 295 295 294 294 293 294 294 295 298 303 305 305 306 302 303 303 302 300 299 299 298 300 309 311 304 302 302 302 302 302 302 303 302 302 301 301
300 301 299 301 300 291 291 292 294 297 299 301 299 298 297 296 296 295 295 295 293 293 293 294 299 301 304 305 302 302 297 302 302 301 299 298 298 297 297 299 306 310 309 302 302 303 302 302 302 303 302 302 301 301
301 300 301 300 291 291 292 295 298 299 301 300 299 297 296 295 296 295 295 297 295 295 296 297 301 298 303 300 298 299 298 299 300 298 297 297 297 296 297 299 304 310 311 310 303 303 302 302 303 302 301 302 301 300
298 300 298 292 292 292 294 295 299 301 300 297 297 297 295 295 297 297 296 295 297 297 296 299 298 296 298 296 298 298 298 299 297 296 296 296 296 296 296 298 302 307 311 310 309 305 303 302 301 301 302 301 300 300
300 297 292 291 294 297 299 298 298 300 300 298 297 295 297 296 295 295 294 295 296 295 295 294 295 296 297 298 297 297 297 295 295 295 295 296 295 296 296 299 302 303 308 309 309 309 305 303 302 302 303 302 300 300
297 295 294 292 295 297 301 300 299 298 299 298 295 296 296 296 294 293 292 292 292 292 295 295 295 296 296 296 297 295 294 294 295 295 296 296 295 296 295 296 299 299 299 299 301 305 309 304 303 302 302 302 301 301
294 294 293 291 291 294 298 299 297 297 297 297 296 298 296 294 294 293 293 291 292 293 293 293 296 295 296 296 294 294 294 294 295 296 295 295 295 294 294 294 296 296 296 296 296 299 300 304 308 304 302 301 301 301
293 292 291 292 297 298 298 297 297 297 296 297 296 297 297 296 295 294 292 292 293 291 293 295 295 296 296 295 295 294 294 293 294 294 293 293 294 293 293 294 294 294 294 294 294 296 297 298 301 303 302 301 300 300
293 296 297 297 299 297 297 297 297 297 299 298 297 298 298 296 295 294 293 288 288 292 295 295 295 295 295 295 294 293 292 292 292 294 294 293 292 292 292 293 293 293 293 293 293 294 295 296 297 301 302 301 301 301
295 296 298 299 297 298 299 298 297 299 298 297 298 300 299 296 294 293 292 287 288 293 294 294 294 294 294 294 293 289 289 290 290 293 292 293 290 290 291 292 292 292 291 291 292 293 294 294 295 297 300 303 301 300
295 296 295 294 298 298 300 300 299 299 300 299 300 300 298 295 293 294 294 289 289 290 293 293 293 293 294 290 289 288 288 288 288 288 292 291 289 288 290 290 291 290 289 290 290 291 291 293 293 295 297 300 301 300
293 294 296 298 299 300 300 301 300 300 300 300 300 299 295 296 299 299 293 289 287 287 289 290 289 289 289 290 287 287 286 286 288 287 287 289 286 286 287 289 289 289 288 288 288 289 289 290 291 292 294 296 298 301
294 295 296 297 299 299 299 299 299 298 299 300 300 298 297 296 296 294 290 289 287 292 293 293 292 291 289 288 288 287 286 285 285 286 285 285 285 285 285 286 288 288 287 287 287 287 288 288 288 289 291 293 295 298
295 296 297 296 296 296 299 299 299 300 299 299 300 301 299 297 297 292 290 292 293 293 293 292 292 292 290 288 287 287 286 286 285 284 284 284 284 284 285 286 286 286 286 286 285 285 285 285 286 287 289 291 293 296
296 296 296 297 298 298 299 299 300 299 299 300 300 299 296 295 291 290 292 293 293 291 289 289 288 289 287 287 286 285 285 285 284 282 282 281 282 283 283 285 285 285 284 284 284 284 283 285 286 287 289 290 293 296
295 295 296 299 299 300 300 299 298 296 295 294 294 293 290 288 289 292 292 291 290 288 289 289 289 289 287 285 284 284 283 283 283 283 280 280 282 282 282 284 284 284 283 282 282 282 285 284 285 285 286 288 289 291
295 297 298 298 300 299 298 296 295 294 294 293 292 291 289 288 289 288 289 289 289 289 288 288 287 287 286 286 285 284 283 283 283 282 282 282 282 281 281 283 283 282 282 281 280 280 280 280 281 282 283 283 284 285
296 297 299 300 298 298 298 297 295 293 292 291 290 289 287 287 288 286 287 288 289 288 288 287 286 285 285 285 285 284 283 282 282 282 282 281 281 281 280 282 282 282 281 281 281 280 279 278 278 278 279 281 282 282
295 297 298 298 297 299 298 298 296 294 294 293 292 292 289 286 285 286 287 287 288 288 287 286 285 285 285 285 284 283 282 282 281 281 281 281 280 280 280 280 281 281 281 280 280 280 280 279 278 278 277 278 279 280
Wind_Speed
21 20 19 16 16 16 13 13 13 16 18 16 12 11 11 10 10 9 9 5 2 2 9 6 3 3 1 3 3 4 5 3 3 5 3 2 3 2 3 3 2 3 2 3 3 4 6 5 5 4 7 14 14 12
22 21 20 17 16 15 14 14 14 15 17 16 13 12 10 10 9 7 7 6 12 5 7 20 27 30 24 24 4 2 3 5 4 2 2 3 3 3 1 3 2 3 5 3 5 5 3 5 8 13 7 15 14 14
24 22 21 18 16 15 14 14 14 16 17 16 13 13 11 10 8 8 13 11 10 3 5 4 4 4 13 20 25 6 3 6 5 3 1 2 5 1 2 4 2 4 3 4 4 4 6 11 8 7 15 14 14 15
25 23 21 18 16 15 15 14 15 17 18 15 13 13 12 12 10 10 14 12 6 4 3 6 10 16 9 8 15 30 10 5 2 2 2 3 2 4 3 5 6 7 3 6 5 11 11 10 6 10 16 13 14 15
24 22 20 17 16 15 15 15 16 17 17 15 14 13 13 12 11 13 16 14 15 4 2 6 24 6 14 17 21 22 22 6 2 2 3 2 2 3 2 4 3 3 4 2 4 10 7 8 14 9 16 16 14 13
23 22 20 16 17 16 16 15 16 18 16 16 14 13 13 11 8 5 2 3 6 13 2 4 5 6 23 23 9 5 10 3 2 2 2 2 2 2 2 3 6 5 5 5 6 7 5 10 8 10 17 15 13 13
24 22 20 14 17 16 16 16 17 16 17 16 14 14 12 8 4 4 2 4 8 1 2 4 4 5 10 7 4 2 6 3 3 2 3 2 3 4 2 3 12 16 17 13 5 6 7 6 8 11 13 13 13 10
24 24 20 16 16 17 17 17 17 16 17 16 16 14 11 7 4 6 1 4 12 5 3 3 4 5 6 4 3 2 1 2 3 2 1 2 1 2 3 7 14 11 11 5 7 5 1 11 8 11 10 11 12 10
26 26 23 17 15 17 17 16 15 16 16 15 12 4 5 4 4 2 1 2 5 1 1 1 3 4 5 3 2 2 2 2 2 2 2 1 1 2 6 9 9 6 4 6 8 8 9 8 8 12 12 12 11 11
26 27 22 19 17 16 17 13 13 14 14 6 3 1 1 2 1 5 1 1 1 0 1 2 1 3 2 3 3 3 1 2 1 3 1 3 1 16 18 22 9 5 5 5 5 10 10 11 11 13 11 11 9 10
28 26 24 20 16 17 16 8 10 10 3 1 3 0 2 6 2 1 2 2 1 2 2 3 4 4 2 3 3 2 3 2 2 1 2 1 3 15 22 23 19 8 6 6 4 5 5 5 7 13 12 11 11 10
30 27 25 18 18 18 12 6 6 2 2 1 1 3 2 1 1 2 3 2 2 2 2 3 5 5 4 2 2 3 3 2 2 5 2 3 7 20 22 22 20 14 8 6 4 4 4 4 7 9 10 10 10 14
31 29 22 19 20 16 8 6 4 2 1 3 1 0 3 1 1 3 1 2 2 2 3 3 5 2 4 1 0 2 3 3 4 4 4 3 15 20 23 22 17 9 6 5 4 8 8 9 6 11 10 14 13 13
26 22 21 23 20 14 8 8 4 2 2 2 3 2 3 2 2 2 3 3 4 2 5 3 3 2 2 3 2 2 3 3 3 5 4 7 18 20 19 20 7 10 5 3 4 5 6 7 7 14 13 15 15 14
24 23 24 21 16 12 10 8 5 4 3 2 2 2 3 1 1 2 1 1 2 3 2 3 1 1 3 3 3 3 4 4 3 4 5 10 18 18 18 19 16 10 5 3 2 4 5 8 7 7 13 13 13 14
25 21 22 18 14 13 12 8 5 3 2 2 3 1 1 3 1 0 0 2 2 4 1 2 3 4 5 3 4 5 3 4 4 6 7 12 16 17 18 18 16 10 6 3 2 3 5 8 7 8 12 11 12 13
27 7 14 18 16 16 13 6 5 3 3 3 3 2 2 3 2 2 2 2 3 2 2 1 4 1 1 3 3 3 2 4 6 8 9 13 15 16 18 17 19 16 11 8 3 1 1 3 6 8 6 11 12 13
7 16 18 22 23 15 7 6 3 3 4 3 2 2 2 3 3 0 1 2 2 1 2 2 2 5 3 2 1 1 3 5 5 7 8 11 14 20 21 16 22 21 14 14 12 3 4 3 3 1 3 6 11 14
18 24 25 25 18 6 4 4 4 3 4 2 2 3 3 3 2 3 1 3 5 4 3 3 4 2 1 1 2 4 4 5 7 9 9 16 17 19 22 23 23 26 20 18 18 14 6 8 6 5 1 3 6 8
25 24 21 20 10 2 3 3 5 2 3 3 3 4 4 3 3 2 3 4 3 3 4 3 2 1 1 1 1 2 4 6 7 7 8 9 18 19 20 20 18 21 21 23 22 23 18 14 2 3 3 2 1 3
19 15 14 13 5 3 2 0 2 3 2 3 3 4 3 2 2 2 2 2 3 2 2 1 2 1 1 1 6 6 8 10 6 5 6 7 16 18 18 19 20 18 17 17 15 18 20 17 17 8 5 3 3 6
11 15 6 6 3 4 2 4 2 1 2 2 3 3 4 3 3 2 3 3 2 1 2 2 2 1 1 1 3 6 8 10 10 6 11 13 7 9 13 18 18 14 16 16 17 16 18 21 24 15 9 8 9 9
16 7 4 4 3 3 4 2 2 2 3 3 2 4 2 2 3 3 3 1 2 3 4 3 3 2 3 3 2 9 11 9 8 7 7 10 15 14 16 17 18 16 14 18 20 19 20 24 24 21 6 9 8 7
7 5 4 4 3 3 2 2 1 2 2 2 4 4 3 3 3 3 2 2 2 6 4 4 4 2 2 2 3 6 10 9 9 9 12 8 11 14 15 15 16 16 20 19 18 19 20 21 24 22 19 12 8 11
4 3 4 3 3 3 4 4 3 2 4 3 4 3 3 3 3 2 4 3 3 3 4 8 6 4 2 2 3 7 10 10 8 5 10 11 11 12 12 14 15 16 23 22 21 21 21 21 19 19 19 18 16 9
3 5 6 5 3 4 5 5 6 5 3 3 3 4 2 3 3 3 3 5 3 4 4 6 4 2 1 4 4 4 9 10 8 11 13 12 18 13 11 10 11 16 24 21 21 21 20 20 20 21 20 18 19 13
3 5 3 2 2 1 1 2 2 4 4 4 4 3 3 3 4 3 1 2 3 9 16 13 10 7 5 11 10 8 8 13 9 5 9 10 12 18 16 13 16 20 24 22 22 22 21 20 19 20 19 20 17 13
3 1 4 3 2 2 2 3 4 4 4 3 4 4 7 5 3 3 3 9 15 15 10 7 9 7 17 14 11 9 11 13 12 11 1 15 16 18 20 18 18 19 21 23 24 22 22 23 21 20 19 19 22 19
2 2 2 1 2 2 4 4 4 3 3 3 4 3 3 1 3 4 9 17 12 14 18 18 21 24 20 15 12 11 13 16 18 7 8 4 9 16 26 22 22 20 21 22 23 24 23 20 21 19 16 17 18 19
3 3 3 3 4 5 3 3 2 3 4 3 4 3 3 6 10 13 17 18 20 19 20 21 19 17 16 15 11 10 11 12 14 13 2 3 10 19 22 21 22 22 23 21 22 24 26 24 23 23 22 20 20 17
2 4 2 3 3 3 4 7 10 7 4 4 5 5 4 4 11 15 19 23 23 22 21 17 14 13 14 12 10 9 7 8 9 10 10 9 13 18 20 17 17 19 21 20 21 22 25 24 23 22 22 23 23 22
3 5 4 4 3 3 3 4 3 3 2 3 1 2 2 3 3 3 4 14 19 17 14 16 17 13 13 12 11 12 11 8 8 10 10 10 14 17 19 16 16 17 18 19 21 23 23 21 20 22 22 23 25 25
3 2 2 1 3 4 3 4 3 3 3 2 2 1 3 3 3 2 5 8 14 15 15 17 16 14 12 12 12 10 10 8 9 10 11 10 12 16 17 15 14 15 16 18 20 21 23 25 26 26 26 26 26 26
Wind_Direction
262 268 271 276 285 293 287 296 306 313 317 322 327 332 335 339 342 334 303 318 37 255 283 251 256 216 243 177 199 291 347 341 354 18 310 347 337 325 346 270 239 222 236 238 239 241 269 37 8 315 293 297 296 300
260 263 266 270 278 287 284 292 302 311 315 318 319 322 328 327 330 321 289 304 318 228 258 291 274 252 250 250 213 215 237 315 287 354 27 331 320 310 267 278 180 281 200 272 229 252 203 334 256 289 294 299 296 296
257 259 261 266 274 282 282 290 297 307 312 313 315 316 318 317 323 304 292 303 307 282 298 328 269 292 290 243 230 197 233 190 239 197 179 266 261 229 249 248 261 293 159 243 268 245 248 268 282 305 308 297 298 297
253 255 257 262 269 277 278 285 293 305 310 312 313 314 315 312 310 303 293 281 261 275 293 282 309 309 308 236 211 214 236 211 164 133 175 244 253 216 252 256 282 259 204 255 257 269 284 277 278 325 315 312 301 302
247 250 255 261 268 273 275 282 290 302 306 311 311 310 310 308 318 313 296 283 223 188 280 288 309 288 300 314 267 232 217 211 158 183 213 236 250 246 248 250 246 208 235 249 288 316 286 305 305 345 339 312 310 305
242 244 246 255 266 271 273 279 289 298 308 310 307 307 309 310 328 334 351 63 184 199 282 301 282 284 309 327 335 167 172 190 222 209 224 227 258 175 279 265 259 268 281 269 293 297 264 275 302 345 324 311 311 309
239 237 240 248 264 270 273 277 287 301 306 308 305 303 305 300 296 229 223 141 124 213 252 293 301 281 307 317 327 51 165 192 184 218 220 224 217 182 256 263 280 300 300 302 296 326 325 15 316 321 322 314 316 312
231 234 230 239 256 264 268 276 289 301 306 306 309 303 289 266 270 275 352 326 227 217 259 304 285 326 357 312 320 340 238 205 209 254 227 232 173 224 265 251 269 287 304 316 345 342 35 298 311 340 332 332 335 336
221 233 226 229 248 259 264 276 293 304 308 313 315 314 110 140 168 244 241 92 137 205 243 252 312 307 347 285 273 301 273 260 165 241 231 167 214 244 256 299 306 336 328 313 340 350 294 316 3 343 345 342 348 342
215 226 236 225 239 251 261 275 297 304 316 327 175 188 107 113 117 138 141 221 52 22 223 255 261 269 7 301 290 300 336 286 266 236 180 202 255 354 352 340 304 311 331 340 330 352 350 350 348 350 341 342 359 347
210 220 234 225 233 246 252 271 292 314 314 95 35 237 352 159 177 105 212 219 143 263 215 244 244 282 264 250 277 256 314 270 283 294 250 294 46 342 331 334 339 332 328 345 31 9 5 304 338 354 351 356 354 353
208 215 227 221 230 240 241 260 282 320 25 314 244 300 319 113 134 237 202 135 214 253 229 229 249 217 270 212 263 302 274 302 263 339 267 53 344 336 333 331 325 301 316 346 42 19 330 312 1 356 347 353 2 359
211 217 217 215 226 235 224 230 228 287 55 129 128 40 88 172 70 232 27 358 347 249 253 272 302 262 332 32 315 313 309 321 321 18 34 56 331 335 337 331 315 291 317 354 43 11 9 353 348 18 6 6 8 11
202 206 212 216 224 227 201 202 208 198 162 183 168 4 173 217 206 148 149 194 239 216 275 262 259 223 287 4 9 325 356 11 37 19 355 337 332 327 327 329 317 322 316 350 24 28 8 10 24 24 23 13 16 20
195 208 214 212 221 202 190 186 203 183 150 208 149 211 191 125 85 174 214 29 278 247 294 331 340 78 344 10 15 358 20 44 26 10 308 323 323 329 332 331 323 335 301 316 30 39 26 22 20 17 26 33 22 18
187 196 199 210 206 179 177 176 191 167 228 225 220 184 99 93 352 102 235 325 301 324 38 45 19 34 20 7 22 11 42 27 342 321 330 320 323 328 326 333 326 349 333 307 15 44 39 36 29 25 31 27 27 23
187 182 184 193 170 168 170 165 175 206 228 215 239 166 138 113 166 209 165 276 308 53 13 47 53 188 318 43 33 29 16 305 313 330 320 317 323 324 326 330 336 345 354 352 324 181 102 73 48 33 19 35 49 37
159 173 169 162 158 148 175 193 223 214 217 223 174 190 113 113 134 234 267 310 55 67 58 71 72 49 47 76 344 305 305 319 327 314 312 314 328 326 329 329 338 343 350 360 354 238 198 169 105 359 25 39 61 58
170 162 158 161 160 162 160 185 201 223 215 194 153 96 93 109 60 73 36 19 75 71 82 50 70 69 39 17 309 315 337 331 325 321 318 328 342 338 332 342 357 6 2 3 6 349 279 215 197 186 211 5 30 43
156 152 163 172 176 161 172 214 192 160 205 212 97 114 128 130 123 80 45 36 56 58 49 61 100 141 216 332 312 291 304 327 321 322 335 339 345 345 348 349 354 5 9 6 2 9 13 27 61 194 236 267 320 2
136 155 157 164 192 223 268 248 170 195 184 145 130 127 109 88 90 61 54 23 59 59 85 120 105 106 298 192 255 312 336 341 335 346 340 334 340 349 349 353 2 12 11 6 355 352 1 0 354 305 197 161 146 111
134 144 128 178 208 188 255 230 197 189 121 140 126 113 116 128 146 164 134 59 81 167 147 136 131 96 70 311 340 340 334 344 347 5 2 352 349 351 351 352 357 9 7 358 349 349 343 343 346 342 197 176 164 146
135 135 139 155 186 149 245 162 166 170 141 179 92 103 122 133 170 117 70 147 188 181 154 145 164 181 247 294 47 24 2 357 349 340 354 5 357 355 353 355 357 359 359 352 348 344 344 348 348 354 345 206 192 167
122 153 166 178 166 195 176 197 181 126 109 108 139 121 150 133 147 70 157 213 216 162 144 164 176 199 210 103 69 21 1 356 10 26 20 23 10 355 352 349 354 359 355 343 346 348 347 349 350 351 348 347 220 197
116 225 140 209 198 173 192 154 158 127 163 164 135 123 161 118 101 163 186 217 159 178 158 175 187 198 132 112 84 25 22 13 6 352 11 22 15 2 357 354 357 1 355 347 349 348 346 342 347 343 342 345 342 239
188 211 170 190 176 184 185 159 172 166 145 139 174 131 92 105 146 210 218 172 165 177 168 186 180 120 93 133 134 49 21 21 42 51 32 36 28 12 349 343 348 354 353 348 344 342 341 339 339 338 333 334 336 340
199 214 208 237 226 205 140 88 117 119 167 167 151 118 108 142 219 218 129 171 147 170 191 199 196 196 165 138 112 84 58 41 43 73 45 34 30 20 11 346 339 343 347 345 344 342 335 333 329 322 317 316 315 315
235 258 197 195 200 198 145 148 144 165 171 148 111 156 164 185 184 171 185 174 156 170 191 229 236 215 155 132 110 80 56 43 44 46 43 28 30 18 13 10 4 351 350 346 344 344 340 331 322 315 308 303 302 306
227 249 171 227 213 196 205 190 191 186 148 135 115 113 122 63 151 137 141 143 147 142 123 108 112 128 121 112 99 78 60 45 43 37 23 353 353 354 4 6 6 358 355 350 349 353 352 351 343 335 328 316 312 309
236 179 182 209 181 202 217 177 132 67 39 80 106 94 51 31 19 122 130 129 122 115 118 125 135 136 140 136 120 92 72 58 51 48 37 341 349 357 2 1 2 358 355 357 357 357 12 13 10 11 6 5 1 350
197 180 210 190 208 181 118 102 82 67 48 46 47 102 120 133 58 75 111 123 124 122 116 111 109 116 111 116 138 133 91 66 54 41 31 25 14 10 7 4 4 2 5 11 11 9 10 13 7 6 6 6 5 3
185 197 192 177 113 71 83 59 69 78 86 67 88 82 77 79 88 20 92 128 117 108 115 120 114 103 100 103 109 110 107 90 53 34 26 23 17 13 9 10 12 16 21 26 28 29 29 24 19 17 12 11 11 12
182 179 168 156 121 103 112 105 99 89 80 77 91 84 68 104 123 155 88 118 119 121 120 122 118 110 99 99 129 109 91 70 51 31 26 22 13 8 12 18 22 25 30 35 37 38 39 39 38 35 31 28 26 26